QPF
0.00 0.00 0.00 0.00 0.00 0.00 0.00 0.00 0.00 0.00 0.00 0.00 0.00 0.00 0.00 0.00 0.00 0.00 0.00 0.00 0.00 0.00 0.00 0.00 0.00 0.00 0.00 0.00 0.00 0.00 0.00 0.00 0.00 0.01 0.01 0.02 0.03 0.04 0.07 0.11 0.15 0.20 0.24 0.27
0.00 0.00 0.00 0.00 0.00 0.00 0.00 0.00 0.00 0.00 0.00 0.00 0.00 0.00 0.00 0.00 0.00 0.00 0.00 0.00 0.00 0.00 0.00 0.01 0.00 0.00 0.00 0.01 0.01 0.00 0.00 0.00 0.00 0.01 0.01 0.02 0.03 0.05 0.07 0.09 0.12 0.17 0.22 0.26
0.00 0.00 0.00 0.00 0.00 0.00 0.00 0.00 0.00 0.00 0.00 0.00 0.00 0.00 0.00 0.00 0.00 0.01 0.01 0.01 0.00 0.00 0.01 0.01 0.01 0.01 0.01 0.01 0.01 0.00 0.00 0.00 0.00 0.00 0.01 0.02 0.03 0.04 0.06 0.07 0.08 0.11 0.14 0.15
0.00 0.00 0.00 0.00 0.00 0.00 0.00 0.00 0.00 0.00 0.00 0.00 0.00 0.00 0.00 0.00 0.00 0.01 0.01 0.01 0.01 0.01 0.01 0.01 0.00 0.00 0.00 0.00 0.00 0.00 0.00 0.00 0.00 0.00 0.01 0.01 0.02 0.03 0.04 0.05 0.06 0.07 0.07 0.06
0.00 0.00 0.00 0.00 0.00 0.00 0.00 0.00 0.00 0.00 0.00 0.00 0.00 0.00 0.01 0.01 0.00 0.01 0.01 0.01 0.00 0.01 0.01 0.00 0.00 0.00 0.00 0.00 0.00 0.00 0.00 0.00 0.00 0.00 0.00 0.01 0.01 0.02 0.02 0.03 0.05 0.05 0.03 0.02
0.00 0.00 0.00 0.00 0.00 0.00 0.00 0.00 0.00 0.00 0.00 0.00 0.00 0.02 0.02 0.02 0.01 0.00 0.00 0.00 0.00 0.00 0.00 0.00 0.00 0.00 0.00 0.00 0.00 0.00 0.00 0.00 0.00 0.00 0.00 0.00 0.00 0.00 0.00 0.01 0.02 0.02 0.01 0.01
0.00 0.00 0.00 0.00 0.00 0.00 0.00 0.00 0.00 0.00 0.00 0.00 0.01 0.04 0.03 0.01 0.00 0.00 0.00 0.00 0.00 0.00 0.00 0.00 0.00 0.00 0.00 0.00 0.00 0.00 0.00 0.00 0.00 0.00 0.00 0.00 0.00 0.00 0.00 0.00 0.00 0.00 0.00 0.00
0.00 0.00 0.00 0.00 0.00 0.00 0.00 0.00 0.00 0.00 0.00 0.00 0.01 0.01 0.00 0.00 0.00 0.00 0.00 0.00 0.00 0.00 0.00 0.00 0.00 0.00 0.00 0.00 0.00 0.00 0.00 0.00 0.00 0.00 0.00 0.00 0.00 0.00 0.00 0.00 0.00 0.00 0.00 0.00
0.00 0.00 0.00 0.00 0.00 0.00 0.00 0.00 0.00 0.00 0.00 0.00 0.00 0.00 0.00 0.00 0.00 0.00 0.00 0.00 0.00 0.00 0.00 0.00 0.00 0.00 0.00 0.00 0.00 0.00 0.00 0.00 0.00 0.00 0.00 0.00 0.00 0.00 0.00 0.00 0.00 0.00 0.00 0.00
0.00 0.00 0.00 0.00 0.00 0.00 0.00 0.00 0.00 0.00 0.00 0.00 0.00 0.00 0.00 0.00 0.00 0.00 0.00 0.00 0.00 0.00 0.00 0.00 0.00 0.00 0.00 0.00 0.00 0.00 0.00 0.00 0.00 0.00 0.00 0.00 0.00 0.00 0.00 0.00 0.01 0.02 0.01 0.01
0.00 0.00 0.00 0.00 0.00 0.00 0.00 0.00 0.00 0.00 0.00 0.00 0.00 0.00 0.00 0.00 0.00 0.00 0.00 0.00 0.00 0.00 0.00 0.00 0.00 0.00 0.00 0.00 0.00 0.00 0.00 0.00 0.00 0.00 0.00 0.00 0.00 0.00 0.00 0.00 0.02 0.04 0.02 0.02
0.00 0.00 0.00 0.00 0.00 0.00 0.00 0.00 0.00 0.00 0.00 0.00 0.00 0.00 0.00 0.00 0.00 0.00 0.00 0.00 0.00 0.00 0.00 0.00 0.00 0.00 0.00 0.00 0.00 0.00 0.00 0.00 0.00 0.00 0.00 0.00 0.00 0.00 0.00 0.00 0.01 0.01 0.01 0.02
0.00 0.00 0.00 0.00 0.00 0.00 0.00 0.00 0.00 0.00 0.00 0.00 0.00 0.00 0.00 0.00 0.00 0.00 0.00 0.00 0.00 0.00 0.00 0.00 0.00 0.00 0.00 0.00 0.00 0.00 0.00 0.00 0.00 0.00 0.00 0.00 0.00 0.00 0.00 0.00 0.00 0.00 0.00 0.01
0.00 0.00 0.00 0.00 0.00 0.00 0.00 0.00 0.00 0.00 0.00 0.00 0.00 0.00 0.00 0.00 0.00 0.00 0.00 0.00 0.00 0.00 0.00 0.00 0.00 0.00 0.00 0.00 0.00 0.00 0.00 0.00 0.00 0.00 0.00 0.00 0.00 0.00 0.00 0.00 0.00 0.00 0.00 0.00
0.00 0.00 0.00 0.00 0.00 0.00 0.00 0.00 0.00 0.00 0.00 0.00 0.00 0.00 0.00 0.00 0.00 0.00 0.00 0.00 0.00 0.00 0.00 0.00 0.00 0.00 0.00 0.00 0.00 0.00 0.00 0.00 0.00 0.00 0.00 0.00 0.00 0.00 0.00 0.00 0.00 0.00 0.00 0.00
0.00 0.00 0.00 0.00 0.00 0.00 0.00 0.00 0.00 0.00 0.00 0.00 0.00 0.00 0.00 0.00 0.00 0.00 0.00 0.00 0.00 0.00 0.00 0.00 0.00 0.00 0.00 0.00 0.00 0.00 0.00 0.00 0.00 0.00 0.00 0.00 0.00 0.00 0.00 0.00 0.00 0.00 0.00 0.00
0.00 0.00 0.00 0.00 0.00 0.00 0.00 0.00 0.00 0.00 0.00 0.00 0.00 0.00 0.00 0.00 0.00 0.00 0.00 0.00 0.00 0.00 0.00 0.00 0.00 0.00 0.00 0.00 0.00 0.00 0.00 0.00 0.00 0.01 0.01 0.00 0.00 0.00 0.00 0.00 0.00 0.00 0.00 0.00
0.00 0.00 0.00 0.00 0.00 0.00 0.00 0.00 0.00 0.00 0.00 0.00 0.00 0.00 0.00 0.00 0.00 0.00 0.00 0.00 0.00 0.00 0.00 0.00 0.00 0.00 0.00 0.00 0.00 0.00 0.00 0.01 0.01 0.02 0.01 0.01 0.01 0.01 0.01 0.01 0.00 0.00 0.00 0.00
0.00 0.00 0.00 0.00 0.00 0.00 0.00 0.00 0.00 0.00 0.00 0.00 0.00 0.00 0.00 0.00 0.00 0.00 0.00 0.00 0.00 0.00 0.00 0.00 0.00 0.00 0.00 0.00 0.01 0.02 0.03 0.03 0.03 0.01 0.01 0.01 0.01 0.00 0.00 0.01 0.00 0.00 0.00 0.00
0.00 0.00 0.00 0.00 0.00 0.00 0.00 0.00 0.00 0.00 0.00 0.00 0.00 0.00 0.00 0.00 0.00 0.00 0.00 0.00 0.00 0.00 0.00 0.00 0.00 0.00 0.00 0.01 0.04 0.05 0.04 0.02 0.01 0.01 0.01 0.01 0.01 0.01 0.01 0.01 0.01 0.01 0.01 0.00
0.00 0.00 0.00 0.00 0.00 0.00 0.00 0.00 0.00 0.00 0.00 0.00 0.00 0.00 0.00 0.00 0.00 0.00 0.00 0.00 0.00 0.00 0.00 0.00 0.00 0.00 0.01 0.04 0.04 0.02 0.01 0.01 0.01 0.01 0.01 0.01 0.02 0.02 0.02 0.02 0.02 0.02 0.01 0.01
0.00 0.00 0.00 0.00 0.00 0.00 0.00 0.00 0.00 0.00 0.00 0.00 0.00 0.00 0.00 0.00 0.00 0.00 0.00 0.00 0.00 0.00 0.00 0.00 0.00 0.00 0.02 0.02 0.01 0.01 0.01 0.01 0.01 0.02 0.02 0.02 0.03 0.04 0.03 0.04 0.04 0.04 0.03 0.02
0.00 0.00 0.00 0.00 0.00 0.00 0.00 0.00 0.00 0.00 0.00 0.00 0.00 0.00 0.00 0.00 0.00 0.00 0.00 0.00 0.00 0.00 0.00 0.00 0.00 0.01 0.01 0.01 0.00 0.01 0.01 0.02 0.02 0.02 0.03 0.03 0.04 0.05 0.05 0.05 0.06 0.05 0.05 0.03
0.00 0.00 0.00 0.00 0.00 0.00 0.00 0.00 0.00 0.00 0.00 0.00 0.00 0.00 0.00 0.00 0.00 0.00 0.00 0.00 0.00 0.00 0.00 0.00 0.00 0.00 0.00 0.00 0.01 0.02 0.02 0.03 0.03 0.04 0.03 0.02 0.02 0.03 0.05 0.06 0.06 0.06 0.05 0.04
0.00 0.00 0.00 0.00 0.00 0.00 0.00 0.00 0.00 0.00 0.00 0.00 0.00 0.00 0.00 0.00 0.00 0.00 0.00 0.00 0.00 0.00 0.00 0.00 0.00 0.00 0.00 0.00 0.02 0.02 0.03 0.03 0.04 0.05 0.03 0.02 0.02 0.02 0.03 0.04 0.05 0.04 0.04 0.03
0.00 0.00 0.00 0.00 0.00 0.00 0.00 0.00 0.00 0.00 0.00 0.00 0.00 0.00 0.00 0.00 0.00 0.00 0.00 0.00 0.00 0.00 0.00 0.00 0.00 0.00 0.00 0.01 0.02 0.02 0.02 0.02 0.04 0.06 0.04 0.02 0.01 0.01 0.01 0.02 0.03 0.02 0.02 0.01
0.00 0.00 0.00 0.00 0.00 0.00 0.00 0.00 0.00 0.00 0.00 0.00 0.00 0.00 0.00 0.00 0.00 0.00 0.00 0.00 0.00 0.00 0.00 0.00 0.00 0.00 0.00 0.00 0.01 0.01 0.01 0.02 0.05 0.08 0.07 0.04 0.01 0.00 0.00 0.01 0.01 0.01 0.00 0.00
MSLP
1029.01 1029.12 1029.28 1029.51 1029.83 1030.20 1030.60 1030.99 1031.32 1031.57 1031.71 1031.73 1031.65 1031.50 1031.30 1031.11 1030.94 1030.82 1030.74 1030.70 1030.67 1030.60 1030.47 1030.25 1029.90 1029.43 1028.83 1028.11 1027.30 1026.42 1025.49 1024.52 1023.52 1022.51 1021.47 1020.41 1019.33 1018.23 1017.12 1016.01 1014.95 1013.95 1013.04 1012.26
1030.08 1030.24 1030.41 1030.59 1030.80 1031.02 1031.24 1031.44 1031.59 1031.69 1031.72 1031.70 1031.62 1031.53 1031.44 1031.37 1031.34 1031.36 1031.41 1031.47 1031.51 1031.48 1031.37 1031.13 1030.76 1030.24 1029.59 1028.82 1027.95 1027.02 1026.04 1025.04 1024.03 1023.01 1021.99 1020.96 1019.93 1018.89 1017.85 1016.84 1015.85 1014.93 1014.10 1013.37
1031.16 1031.33 1031.46 1031.55 1031.63 1031.68 1031.73 1031.75 1031.75 1031.73 1031.69 1031.64 1031.60 1031.58 1031.59 1031.65 1031.76 1031.89 1032.05 1032.18 1032.27 1032.26 1032.14 1031.88 1031.47 1030.90 1030.20 1029.38 1028.48 1027.51 1026.52 1025.51 1024.51 1023.51 1022.53 1021.56 1020.59 1019.63 1018.68 1017.75 1016.84 1016.00 1015.22 1014.53
1032.14 1032.27 1032.32 1032.31 1032.25 1032.16 1032.05 1031.94 1031.84 1031.74 1031.67 1031.64 1031.64 1031.70 1031.81 1031.98 1032.19 1032.41 1032.63 1032.80 1032.90 1032.89 1032.74 1032.44 1031.99 1031.39 1030.65 1029.80 1028.87 1027.90 1026.91 1025.92 1024.95 1024.00 1023.07 1022.16 1021.26 1020.38 1019.50 1018.64 1017.81 1017.01 1016.27 1015.60
1032.90 1032.95 1032.91 1032.79 1032.62 1032.42 1032.22 1032.04 1031.88 1031.77 1031.72 1031.73 1031.80 1031.94 1032.13 1032.37 1032.64 1032.91 1033.14 1033.32 1033.40 1033.35 1033.17 1032.83 1032.34 1031.70 1030.95 1030.09 1029.17 1028.21 1027.25 1026.29 1025.36 1024.45 1023.58 1022.72 1021.89 1021.06 1020.24 1019.43 1018.64 1017.88 1017.16 1016.49
1033.34 1033.31 1033.17 1032.96 1032.72 1032.47 1032.24 1032.05 1031.92 1031.86 1031.87 1031.95 1032.10 1032.31 1032.56 1032.84 1033.12 1033.39 1033.60 1033.74 1033.77 1033.68 1033.44 1033.07 1032.55 1031.90 1031.14 1030.30 1029.40 1028.47 1027.54 1026.62 1025.73 1024.87 1024.03 1023.22 1022.43 1021.64 1020.86 1020.08 1019.31 1018.55 1017.83 1017.16
1033.43 1033.30 1033.09 1032.84 1032.57 1032.33 1032.15 1032.03 1031.98 1032.02 1032.13 1032.31 1032.54 1032.81 1033.10 1033.39 1033.65 1033.87 1034.03 1034.10 1034.06 1033.90 1033.61 1033.20 1032.67 1032.02 1031.28 1030.46 1029.60 1028.71 1027.81 1026.93 1026.07 1025.24 1024.43 1023.65 1022.87 1022.11 1021.34 1020.57 1019.81 1019.06 1018.33 1017.64
1033.17 1032.97 1032.72 1032.46 1032.24 1032.07 1031.99 1032.00 1032.09 1032.27 1032.52 1032.80 1033.12 1033.43 1033.73 1034.00 1034.21 1034.36 1034.43 1034.41 1034.29 1034.06 1033.73 1033.28 1032.74 1032.10 1031.38 1030.59 1029.77 1028.92 1028.06 1027.21 1026.38 1025.57 1024.78 1024.00 1023.24 1022.48 1021.72 1020.96 1020.20 1019.44 1018.71 1018.00
1032.65 1032.40 1032.15 1031.94 1031.80 1031.76 1031.83 1032.00 1032.28 1032.62 1033.00 1033.40 1033.78 1034.13 1034.42 1034.64 1034.78 1034.84 1034.81 1034.70 1034.49 1034.19 1033.81 1033.33 1032.78 1032.15 1031.46 1030.71 1029.92 1029.10 1028.28 1027.45 1026.64 1025.84 1025.06 1024.30 1023.55 1022.80 1022.05 1021.29 1020.54 1019.79 1019.05 1018.34
1031.97 1031.72 1031.51 1031.38 1031.37 1031.49 1031.74 1032.10 1032.55 1033.05 1033.57 1034.06 1034.50 1034.86 1035.12 1035.28 1035.34 1035.30 1035.17 1034.96 1034.66 1034.30 1033.87 1033.37 1032.80 1032.18 1031.50 1030.78 1030.01 1029.22 1028.42 1027.62 1026.83 1026.05 1025.28 1024.53 1023.80 1023.07 1022.34 1021.61 1020.88 1020.15 1019.44 1018.74
1031.29 1031.07 1030.93 1030.92 1031.06 1031.35 1031.78 1032.32 1032.93 1033.57 1034.19 1034.75 1035.22 1035.57 1035.79 1035.88 1035.85 1035.72 1035.49 1035.19 1034.81 1034.38 1033.90 1033.37 1032.79 1032.16 1031.49 1030.77 1030.02 1029.25 1028.47 1027.68 1026.90 1026.15 1025.41 1024.69 1023.99 1023.30 1022.61 1021.93 1021.24 1020.55 1019.87 1019.21
1030.72 1030.57 1030.54 1030.67 1030.95 1031.40 1032.00 1032.68 1033.42 1034.16 1034.84 1035.44 1035.90 1036.22 1036.39 1036.41 1036.30 1036.07 1035.76 1035.37 1034.92 1034.43 1033.90 1033.33 1032.72 1032.07 1031.38 1030.66 1029.91 1029.14 1028.36 1027.59 1026.84 1026.10 1025.40 1024.72 1024.07 1023.44 1022.81 1022.19 1021.56 1020.94 1020.32 1019.70
1030.36 1030.30 1030.39 1030.65 1031.09 1031.68 1032.39 1033.19 1034.00 1034.79 1035.50 1036.09 1036.52 1036.79 1036.89 1036.84 1036.65 1036.35 1035.96 1035.50 1034.99 1034.44 1033.85 1033.23 1032.57 1031.89 1031.17 1030.42 1029.65 1028.87 1028.09 1027.33 1026.59 1025.89 1025.23 1024.60 1024.00 1023.43 1022.87 1022.32 1021.78 1021.22 1020.67 1020.12
1030.22 1030.28 1030.50 1030.89 1031.45 1032.16 1032.96 1033.81 1034.66 1035.45 1036.14 1036.69 1037.07 1037.27 1037.30 1037.18 1036.92 1036.55 1036.10 1035.57 1035.00 1034.39 1033.74 1033.06 1032.35 1031.61 1030.84 1030.05 1029.25 1028.45 1027.66 1026.90 1026.17 1025.49 1024.86 1024.28 1023.74 1023.22 1022.73 1022.26 1021.78 1021.31 1020.84 1020.37
1030.28 1030.47 1030.82 1031.34 1032.01 1032.79 1033.64 1034.51 1035.35 1036.11 1036.74 1037.22 1037.53 1037.66 1037.62 1037.43 1037.11 1036.68 1036.17 1035.59 1034.96 1034.28 1033.57 1032.83 1032.05 1031.24 1030.41 1029.57 1028.73 1027.89 1027.08 1026.32 1025.59 1024.92 1024.32 1023.76 1023.25 1022.79 1022.35 1021.92 1021.52 1021.11 1020.72 1020.33
1030.49 1030.81 1031.30 1031.93 1032.68 1033.52 1034.39 1035.25 1036.04 1036.73 1037.29 1037.69 1037.91 1037.96 1037.85 1037.60 1037.22 1036.75 1036.18 1035.55 1034.86 1034.13 1033.35 1032.54 1031.69 1030.82 1029.92 1029.03 1028.13 1027.26 1026.42 1025.63 1024.90 1024.23 1023.62 1023.07 1022.57 1022.12 1021.71 1021.32 1020.95 1020.61 1020.29 1019.98
1030.77 1031.24 1031.85 1032.59 1033.41 1034.27 1035.14 1035.96 1036.69 1037.30 1037.77 1038.08 1038.21 1038.18 1038.01 1037.70 1037.27 1036.75 1036.14 1035.46 1034.72 1033.93 1033.09 1032.21 1031.30 1030.36 1029.41 1028.46 1027.52 1026.61 1025.74 1024.92 1024.16 1023.47 1022.84 1022.27 1021.76 1021.29 1020.87 1020.49 1020.15 1019.84 1019.58 1019.35
1031.09 1031.70 1032.43 1033.25 1034.12 1035.00 1035.84 1036.60 1037.26 1037.79 1038.16 1038.37 1038.42 1038.32 1038.08 1037.72 1037.25 1036.69 1036.04 1035.32 1034.53 1033.69 1032.80 1031.87 1030.90 1029.91 1028.91 1027.91 1026.94 1025.99 1025.09 1024.25 1023.46 1022.73 1022.06 1021.45 1020.90 1020.40 1019.95 1019.55 1019.20 1018.92 1018.69 1018.53
1031.42 1032.15 1032.98 1033.87 1034.77 1035.65 1036.45 1037.16 1037.73 1038.17 1038.45 1038.57 1038.54 1038.37 1038.08 1037.67 1037.16 1036.56 1035.88 1035.12 1034.30 1033.42 1032.49 1031.52 1030.51 1029.49 1028.46 1027.44 1026.44 1025.48 1024.56 1023.68 1022.86 1022.09 1021.38 1020.72 1020.11 1019.56 1019.06 1018.63 1018.27 1017.99 1017.79 1017.67
1031.76 1032.60 1033.51 1034.44 1035.35 1036.20 1036.96 1037.59 1038.09 1038.43 1038.62 1038.67 1038.56 1038.33 1037.99 1037.54 1036.99 1036.36 1035.66 1034.88 1034.03 1033.13 1032.17 1031.18 1030.16 1029.13 1028.09 1027.07 1026.07 1025.10 1024.17 1023.28 1022.43 1021.62 1020.87 1020.16 1019.49 1018.89 1018.35 1017.88 1017.50 1017.20 1017.02 1016.93
1032.12 1033.04 1034.01 1034.96 1035.86 1036.67 1037.36 1037.91 1038.32 1038.58 1038.68 1038.65 1038.49 1038.20 1037.82 1037.33 1036.77 1036.12 1035.39 1034.60 1033.74 1032.83 1031.88 1030.89 1029.88 1028.85 1027.83 1026.82 1025.83 1024.87 1023.95 1023.05 1022.19 1021.36 1020.57 1019.82 1019.12 1018.47 1017.89 1017.40 1016.99 1016.70 1016.51 1016.44
1032.52 1033.50 1034.48 1035.42 1036.28 1037.03 1037.64 1038.11 1038.43 1038.60 1038.64 1038.54 1038.32 1038.00 1037.58 1037.08 1036.50 1035.84 1035.11 1034.32 1033.47 1032.57 1031.63 1030.66 1029.67 1028.68 1027.68 1026.70 1025.74 1024.81 1023.89 1023.01 1022.14 1021.31 1020.50 1019.73 1019.01 1018.34 1017.74 1017.23 1016.82 1016.52 1016.33 1016.26
1032.95 1033.95 1034.92 1035.82 1036.61 1037.28 1037.81 1038.19 1038.43 1038.52 1038.49 1038.34 1038.09 1037.74 1037.31 1036.80 1036.22 1035.57 1034.85 1034.08 1033.25 1032.38 1031.47 1030.53 1029.58 1028.63 1027.67 1026.73 1025.80 1024.89 1024.00 1023.13 1022.27 1021.44 1020.64 1019.86 1019.14 1018.47 1017.88 1017.37 1016.96 1016.66 1016.48 1016.40
1033.37 1034.36 1035.29 1036.12 1036.84 1037.42 1037.86 1038.15 1038.32 1038.35 1038.27 1038.08 1037.81 1037.45 1037.02 1036.52 1035.96 1035.34 1034.66 1033.92 1033.13 1032.30 1031.43 1030.54 1029.63 1028.71 1027.80 1026.89 1025.99 1025.11 1024.24 1023.38 1022.54 1021.72 1020.92 1020.16 1019.45 1018.80 1018.22 1017.73 1017.35 1017.06 1016.88 1016.79
1033.74 1034.68 1035.54 1036.30 1036.93 1037.42 1037.78 1038.00 1038.10 1038.09 1037.98 1037.78 1037.51 1037.17 1036.76 1036.30 1035.77 1035.19 1034.56 1033.87 1033.13 1032.34 1031.53 1030.68 1029.82 1028.94 1028.06 1027.18 1026.31 1025.44 1024.58 1023.73 1022.89 1022.08 1021.30 1020.55 1019.86 1019.23 1018.69 1018.23 1017.86 1017.59 1017.41 1017.30
1033.97 1034.85 1035.63 1036.30 1036.85 1037.27 1037.56 1037.73 1037.80 1037.77 1037.66 1037.47 1037.22 1036.92 1036.55 1036.14 1035.67 1035.15 1034.57 1033.94 1033.26 1032.53 1031.77 1030.97 1030.15 1029.31 1028.45 1027.59 1026.73 1025.86 1025.00 1024.14 1023.31 1022.49 1021.71 1020.98 1020.30 1019.69 1019.17 1018.73 1018.38 1018.12 1017.94 1017.82
1034.01 1034.81 1035.52 1036.12 1036.60 1036.96 1037.21 1037.36 1037.42 1037.40 1037.32 1037.17 1036.97 1036.72 1036.41 1036.06 1035.66 1035.21 1034.70 1034.13 1033.52 1032.85 1032.14 1031.39 1030.61 1029.80 1028.96 1028.10 1027.23 1026.36 1025.48 1024.61 1023.75 1022.92 1022.12 1021.38 1020.71 1020.11 1019.59 1019.16 1018.81 1018.55 1018.36 1018.22
Thickness
5541 5533 5524 5511 5497 5489 5470 5448 5423 5406 5390 5380 5367 5357 5350 5340 5333 5328 5322 5315 5307 5299 5292 5286 5281 5279 5280 5281 5283 5285 5286 5287 5287 5288 5289 5291 5294 5296 5298 5300 5302 5306 5312 5319
5528 5518 5507 5490 5477 5467 5453 5437 5418 5399 5386 5377 5362 5353 5347 5333 5325 5318 5311 5303 5295 5288 5282 5277 5272 5271 5271 5271 5273 5274 5274 5275 5275 5276 5277 5279 5281 5283 5286 5288 5291 5293 5297 5302
5502 5493 5493 5466 5462 5452 5439 5425 5406 5383 5372 5363 5353 5349 5339 5325 5316 5308 5301 5292 5284 5277 5271 5266 5263 5261 5260 5260 5261 5261 5261 5262 5262 5263 5264 5265 5267 5270 5273 5276 5279 5282 5284 5287
5482 5476 5464 5462 5459 5448 5429 5413 5397 5381 5367 5355 5345 5340 5330 5316 5307 5299 5291 5283 5274 5268 5262 5258 5254 5252 5249 5248 5248 5247 5247 5248 5248 5249 5250 5251 5253 5255 5259 5263 5267 5271 5273 5276
5460 5461 5452 5456 5451 5436 5418 5403 5390 5374 5363 5354 5345 5339 5323 5310 5301 5291 5282 5274 5266 5259 5253 5249 5245 5242 5239 5237 5235 5234 5233 5233 5234 5235 5235 5237 5237 5240 5244 5248 5253 5258 5262 5266
5453 5452 5443 5447 5444 5431 5411 5391 5383 5367 5352 5341 5334 5331 5320 5306 5296 5285 5275 5266 5259 5252 5245 5240 5236 5231 5227 5224 5222 5221 5220 5219 5219 5219 5220 5222 5222 5225 5228 5232 5237 5242 5248 5252
5449 5430 5431 5442 5436 5419 5390 5380 5378 5361 5343 5328 5319 5314 5308 5298 5289 5278 5267 5259 5252 5243 5236 5230 5225 5220 5214 5210 5207 5205 5204 5203 5202 5203 5203 5205 5206 5209 5212 5216 5219 5224 5229 5233
5438 5419 5420 5437 5427 5405 5391 5380 5367 5348 5333 5322 5315 5309 5300 5291 5281 5271 5260 5251 5243 5235 5227 5219 5213 5207 5202 5197 5193 5190 5188 5186 5184 5184 5184 5186 5188 5191 5194 5198 5201 5206 5210 5215
5446 5440 5439 5433 5420 5405 5388 5372 5355 5338 5327 5318 5309 5300 5293 5284 5273 5261 5251 5242 5233 5224 5215 5208 5201 5195 5189 5185 5181 5177 5173 5170 5168 5166 5164 5165 5167 5170 5175 5178 5182 5189 5193 5197
5450 5441 5437 5423 5409 5394 5378 5362 5346 5335 5324 5314 5302 5293 5285 5275 5264 5252 5243 5233 5224 5214 5206 5198 5192 5187 5181 5176 5171 5166 5162 5159 5156 5152 5149 5147 5147 5149 5153 5156 5161 5168 5173 5177
5444 5440 5431 5419 5404 5387 5369 5353 5340 5330 5320 5308 5297 5286 5275 5263 5252 5242 5234 5223 5214 5204 5198 5193 5188 5182 5178 5172 5167 5161 5156 5152 5148 5144 5138 5135 5133 5132 5135 5136 5141 5145 5150 5155
5437 5432 5420 5409 5397 5380 5362 5346 5334 5324 5312 5300 5289 5276 5265 5253 5242 5232 5223 5214 5206 5200 5197 5191 5186 5181 5176 5171 5165 5158 5153 5148 5144 5140 5134 5129 5125 5122 5120 5122 5124 5126 5130 5135
5441 5432 5417 5405 5388 5371 5354 5339 5328 5317 5305 5291 5279 5267 5256 5244 5235 5225 5215 5208 5203 5200 5196 5191 5185 5180 5175 5169 5163 5157 5150 5144 5139 5135 5129 5125 5121 5117 5114 5112 5111 5112 5114 5117
5438 5427 5411 5393 5375 5359 5345 5333 5321 5308 5295 5283 5271 5260 5248 5238 5228 5219 5211 5206 5204 5200 5195 5190 5185 5180 5175 5169 5163 5156 5148 5142 5137 5131 5125 5120 5115 5112 5108 5106 5104 5101 5102 5103
5427 5417 5401 5382 5364 5349 5337 5325 5312 5298 5286 5274 5263 5252 5241 5231 5221 5214 5210 5208 5204 5199 5195 5190 5186 5181 5176 5169 5163 5156 5149 5143 5137 5132 5125 5119 5114 5108 5104 5100 5097 5095 5093 5092
5419 5406 5391 5374 5357 5342 5329 5317 5304 5290 5278 5266 5254 5244 5235 5226 5219 5215 5212 5209 5204 5200 5197 5192 5187 5183 5178 5172 5165 5158 5151 5145 5139 5133 5127 5119 5111 5104 5099 5094 5090 5087 5085 5084
5410 5399 5384 5368 5351 5335 5321 5309 5296 5283 5272 5260 5249 5239 5231 5224 5219 5216 5213 5209 5205 5202 5199 5194 5189 5185 5180 5175 5167 5160 5155 5149 5144 5136 5126 5117 5109 5101 5095 5090 5085 5082 5079 5078
5404 5390 5376 5362 5346 5329 5313 5300 5289 5278 5267 5257 5246 5236 5227 5222 5217 5214 5212 5211 5208 5206 5202 5198 5192 5190 5186 5178 5171 5165 5159 5152 5143 5133 5123 5114 5107 5100 5093 5087 5081 5077 5074 5071
5393 5378 5363 5350 5335 5321 5306 5294 5283 5272 5262 5253 5242 5232 5224 5220 5217 5215 5214 5212 5210 5209 5207 5202 5201 5196 5189 5183 5179 5172 5161 5150 5140 5132 5123 5116 5108 5099 5091 5085 5079 5073 5068 5065
5380 5366 5351 5335 5323 5311 5299 5288 5278 5268 5258 5248 5238 5230 5225 5221 5219 5217 5216 5214 5212 5209 5209 5209 5206 5200 5195 5190 5184 5171 5160 5151 5144 5137 5129 5120 5111 5103 5094 5086 5079 5072 5067 5062
5372 5357 5342 5327 5315 5305 5296 5286 5275 5264 5254 5245 5236 5228 5224 5222 5222 5219 5217 5219 5219 5216 5215 5213 5207 5202 5200 5195 5184 5173 5165 5158 5152 5145 5138 5129 5120 5111 5101 5092 5084 5076 5069 5063
5365 5351 5336 5322 5311 5299 5289 5279 5270 5260 5251 5242 5235 5229 5226 5225 5225 5223 5221 5219 5220 5219 5218 5214 5209 5207 5204 5196 5186 5178 5171 5165 5161 5155 5147 5138 5130 5120 5111 5102 5093 5084 5075 5067
5361 5347 5332 5319 5306 5293 5283 5274 5266 5257 5249 5241 5234 5230 5228 5226 5225 5224 5225 5224 5222 5222 5219 5215 5213 5210 5206 5198 5190 5184 5178 5173 5168 5162 5155 5146 5138 5130 5122 5114 5105 5095 5084 5074
5355 5341 5325 5310 5298 5287 5278 5270 5262 5254 5246 5239 5234 5231 5229 5229 5229 5227 5224 5224 5223 5223 5220 5217 5215 5212 5207 5200 5195 5190 5184 5179 5176 5170 5162 5154 5146 5138 5130 5123 5115 5105 5094 5085
5344 5328 5314 5303 5294 5286 5277 5267 5259 5251 5245 5239 5236 5234 5232 5230 5228 5228 5227 5225 5224 5224 5220 5218 5216 5213 5208 5203 5199 5194 5190 5185 5181 5176 5169 5161 5153 5145 5137 5130 5123 5116 5107 5099
5334 5322 5311 5302 5294 5285 5276 5267 5259 5253 5247 5241 5237 5235 5234 5233 5232 5230 5228 5227 5225 5223 5220 5218 5215 5213 5210 5206 5202 5199 5195 5193 5189 5184 5177 5168 5160 5153 5146 5139 5132 5126 5120 5114
5326 5315 5305 5297 5290 5283 5276 5268 5260 5253 5246 5241 5237 5235 5234 5233 5233 5231 5230 5228 5226 5224 5221 5218 5216 5213 5211 5208 5206 5203 5201 5199 5197 5193 5186 5178 5170 5163 5156 5150 5143 5138 5132 5127